Weather History for KBED - January, 2014

Change the Weather History Date:

Tuesday, January 21, 2014

  Actual Average Record
Temperature  
Mean Temperature 14 °F -  
Max Temperature 19 °F 33 °F - (-1)
Min Temperature 10 °F 13 °F - (-1)
Degree Days  
Heating Degree Days 50    
Moisture  
Dew Point 2 °F    
Average Humidity 68    
Maximum Humidity 95    
Minimum Humidity 43    
Precipitation  
Precipitation 0.01 in - - ()
Sea Level Pressure  
Sea Level Pressure 30.01 in    
Wind  
Wind Speed 8 mph (North)    
Max Wind Speed 14 mph    
Max Gust Speed 23 mph    
Visibility 6 miles    
Events Snow    
Averages and records for this station are not official NWS values.
T = Trace of Precipitation, MM = Missing Value Source: NWS Daily Summary

Daily Weather History Graph

Daily Weather History Graph

Search for Another Location

Airport or City:

Trip Planner

Search our weather history database for the weather conditions in past years. The results will help you decide how hot, cold, wet, or windy it might be!

Date:

Astronomy

Jan. 21, 2014 Rise Set
Actual Time 7:08 AM EST 4:44 PM EST
Civil Twilight 6:37 AM EST 5:15 PM EST
Nautical Twilight 6:03 AM EST 5:49 PM EST
Astronomical Twilight 5:30 AM EST 6:23 PM EST
Moon 10:22 PM EST (1/21) 9:29 AM EST (1/21)
Length of Visible Light 10h 37m
Length of Day
9h 36m
Waning Gibbous, 75% of the Moon is Illuminated
Jan 21
Waning Gibbous
Jan 24
Last Quarter
Jan 30
New
Feb 6
First Quarter
Feb 14
Full

Hourly Weather History & Observations

Time (EST) Temp. Windchill Dew Point Humidity Pressure Visibility Wind Dir Wind Speed Gust Speed Precip Events Conditions
12:56 AM 19.9 °F 10.1 °F 9.0 °F 62% 29.94 in 10.0 mi NNW 8.1 mph - N/A   Partly Cloudy
1:56 AM 19.0 °F 8.2 °F 3.0 °F 50% 29.98 in 10.0 mi West 9.2 mph - N/A   Clear
2:56 AM 18.0 °F 8.7 °F -0.0 °F 45% 29.99 in 10.0 mi WNW 6.9 mph - N/A   Clear
3:56 AM 15.1 °F 3.3 °F 8.1 °F 74% 30.02 in 10.0 mi North 9.2 mph - N/A   Clear
4:56 AM 12.9 °F 0.7 °F 6.1 °F 74% 30.03 in 10.0 mi NNW 9.2 mph - N/A   Clear
5:56 AM 12.0 °F 4.1 °F 1.0 °F 61% 30.06 in 10.0 mi North 4.6 mph - N/A   Clear
6:56 AM 10.9 °F - 1.0 °F 64% 30.08 in 10.0 mi Calm Calm - N/A   Clear
7:56 AM 10.9 °F 2.9 °F -0.9 °F 59% 30.09 in 10.0 mi NNW 4.6 mph - N/A   Clear
8:56 AM 10.9 °F -0.8 °F -0.9 °F 59% 30.11 in 10.0 mi NNW 8.1 mph - N/A   Clear
9:56 AM 12.9 °F 2.6 °F -2.0 °F 51% 30.10 in 10.0 mi NW 6.9 mph - N/A   Partly Cloudy
10:56 AM 12.0 °F 0.5 °F -6.0 °F 44% 30.10 in 10.0 mi North 8.1 mph - N/A   Overcast
11:56 AM 12.9 °F 1.6 °F -6.0 °F 43% 30.09 in 10.0 mi NNW 8.1 mph - N/A   Overcast
12:56 PM 12.9 °F 1.6 °F -5.1 °F 45% 30.09 in 10.0 mi NW 8.1 mph - N/A   Overcast
1:56 PM 12.9 °F 1.6 °F -6.0 °F 43% 30.06 in 10.0 mi North 8.1 mph - N/A   Overcast
2:56 PM 12.9 °F -0.9 °F -4.0 °F 47% 30.02 in 10.0 mi North 11.5 mph - N/A   Overcast
3:56 PM 12.0 °F -1.3 °F -4.0 °F 49% 30.01 in 10.0 mi North 10.4 mph - N/A   Overcast
4:43 PM 12.2 °F 1.7 °F -2.2 °F 53% 29.98 in 2.5 mi North 6.9 mph - 0.00 in Snow Light Snow
4:52 PM 10.4 °F -4.8 °F -0.4 °F 62% 29.96 in 2.5 mi NE 12.7 mph - 0.00 in Snow Light Snow
4:56 PM 10.9 °F -2.6 °F 1.0 °F 64% 30.01 in 1.5 mi NNE 10.4 mph - 0.00 in Snow Light Snow
5:03 PM 10.4 °F -1.5 °F 6.8 °F 85% 29.97 in 1.8 mi NNE 8.1 mph - 0.00 in Snow Light Snow
5:56 PM 10.0 °F -0.9 °F 5.0 °F 80% 30.03 in 0.8 mi North 6.9 mph - 0.00 in Snow Light Snow
6:13 PM 10.4 °F -1.5 °F 8.6 °F 92% 29.98 in 1.2 mi NNW 8.1 mph - 0.00 in Snow Light Snow
6:56 PM 10.0 °F -2.9 °F 9.0 °F 95% 30.02 in 1.2 mi North 9.2 mph - 0.00 in Snow Light Snow
7:56 PM 10.0 °F -3.7 °F 7.0 °F 87% 30.03 in 1.2 mi North 10.4 mph 16.1 mph 0.00 in Snow Light Snow
8:49 PM 10.4 °F -1.5 °F 6.8 °F 85% 29.95 in 0.8 mi North 8.1 mph - 0.01 in Snow Light Snow
8:56 PM 10.0 °F -1.9 °F 7.0 °F 87% 30.01 in 1.0 mi North 8.1 mph - 0.01 in Snow Light Snow
9:28 PM 10.4 °F -3.3 °F 6.8 °F 85% 29.95 in 2.0 mi North 10.4 mph - 0.00 in Snow Light Snow
9:56 PM 10.9 °F -4.1 °F 6.1 °F 81% 30.00 in 3.0 mi North 12.7 mph - 0.00 in Snow Light Snow
10:03 PM 10.4 °F -3.3 °F 6.8 °F 85% 29.94 in 3.0 mi North 10.4 mph - 0.00 in Snow Light Snow
10:43 PM 10.4 °F -2.4 °F 6.8 °F 85% 29.92 in 1.8 mi North 9.2 mph - 0.00 in Snow Light Snow
10:56 PM 10.0 °F -4.5 °F 1.9 °F 70% 29.96 in 1.2 mi North 11.5 mph 19.6 mph 0.00 in Snow Light Snow
11:10 PM 10.4 °F -2.4 °F 6.8 °F 85% 29.90 in 2.5 mi North 9.2 mph 18.4 mph 0.00 in Snow Light Snow
11:32 PM 10.4 °F -2.4 °F 6.8 °F 85% 29.89 in 1.8 mi North 9.2 mph 23.0 mph 0.00 in Snow Light Snow
11:56 PM 10.0 °F -5.9 °F 1.0 °F 67% 29.93 in 2.5 mi North 13.8 mph 21.9 mph 0.00 in Snow Light Snow